Old Wolverton, United Kingdom
Current Conditions -  °F | °C
As of 4:20 PM on Thursday 30 Oct 2014 (Local Time) from EGTC Reporting Station
Clear Clear  
Wind Chill: 61°   Ceiling: Unl
Heat Index: 61°   Visibility: 4mi
Dew Point: 61°   Wind: 8mph
Humidity: 100%   Direction: 180°S
Pressure: 30.03"   Gusts: NA
Location:  52.06°N, 0.81°W
Report Text: EGTC 301620Z 18007KT 6000 NSC 16/16 Q1017
Loading
Personal Weather Stations






























Interactive Weather Map
Tropical Storm Tracking
New forecast layout! Learn more

10-Day Weather Forecast

Advertisements
Track Severe Weather on mobile